Other Surface Observations
Issued by NWS

Home | Current Version | Previous Version | Text Only | Print | Product List | Glossary On
Versions: 1 2 3 4 5 6 7 8 9 10 11 12 13 14 15 16 17 18 19 20 21 22 23 24 25 26 27 28 29 30 31 32 33 34 35 36 37 38 39 40 41 42 43 44 45 46 47 48 49 50
162
SXUS52 KTAE 281918
OSOTAE
OSOTAE
North Florida/South Alabama/Southwest Georgia Weather Roundup
National Weather Service Tallahassee Florida
300 PM EDT FRI APR 28 2017

Note: "fair" indicates few or no clouds below 12,000 feet with no
significant weather and/or obstructions to visibility.

!FLZ017-115-028-034-025-282000
...North Florida...

CITY           SKY/WX    TMP DP  RH WIND       PRES   REMARKS
TALLAHASSEE    MOSUNNY   88  66  48 S17       30.04F HX  90
APALACHICOLA   SUNNY     82  75  79 SE12G20   30.04F
PERRY          SUNNY     91  66  44 S16       30.06S HX  93
CROSS CITY     MOSUNNY   91  68  46 SW16G22   30.05S HX  95
JACKSONVILLE   MOSUNNY   93  66  40 S16G22    30.05F HX  96
$$

!FLZ112-006-005-002-011-282000
...Florida Panhandle...

CITY           SKY/WX    TMP DP  RH WIND       PRES   REMARKS
MARIANNA       MOSUNNY   89  69  51 S10       30.01S HX  93
BONIFAY        NOT AVBL
PANAMA CITY NW FAIR      85  73  67 SE15      30.02F HX  91
TYNDALL AFB    SUNNY     86  73  64 S15       30.02S HX  92
TYND DRONE APT FAIR      85  73  67 S18G28    30.02S HX  92
DE FUNIAK SPR  MOCLDY    85  71  63 S12G21    30.02F
EGLIN AFB      PTSUNNY   82  73  74 SE16      30.01S
DESTIN         MOSUNNY   82  78  88 SE14G20   30.01F HX  91
HURLBURT       PTSUNNY   79  68  69 SE15      30.00S
CRESTVIEW      CLOUDY    84  71  65 S16G23    30.02S
PENSACOLA      CLOUDY    81  73  76 SE15      30.00S
$$

!ALZ063-066-282000
...South Alabama...

CITY           SKY/WX    TMP DP  RH WIND       PRES   REMARKS
DOTHAN         PTSUNNY   88  69  53 S16       30.05S HX  92
OZARK CAIRNS   MOSUNNY   89  69  51 S15G21    30.01S HX  92
FT RUCKER HELI MOSUNNY   89  67  49 S12       30.01S HX  91
RUCKER HELI 3  PTSUNNY   87  67  51 SW9G16    30.01S HX  90
RUCKER HELI 2  PTSUNNY   85  69  57 S7        30.01R
FLORALA APT    LGT RAIN  87  69  54 SW17      30.02S HX  91
ANDALUSIA      MOSUNNY   89  68  49 S8G20     30.00S HX  93
TROY           PTSUNNY   86  68  54 S16G25    30.01S
EUFALA         FAIR      89  69  51 S12       30.01S HX  93
MOBILE         PTSUNNY   84  72  67 S18G25    29.97F
$$

!GAZ120>161-282000
...Southwest and South Central Georgia...

CITY           SKY/WX    TMP DP  RH WIND       PRES   REMARKS
THOMASVILLE    NOT AVBL
BAINBRIDGE     MOSUNNY   90  68  48 S14       30.03S HX  93
MOODY AFB      MOSUNNY   91  64  41 S8        30.02F HX  92
VALDOSTA       SUNNY     91  65  41 SW9G17    30.03F HX  93
MOULTRIE       SUNNY     90  64  43 SW9       30.04F HX  91
BLAKELY        MOSUNNY   90  68  48 SW8       30.02F HX  93
ALBANY         SUNNY     91  67  44 SW10G20   30.04F HX  94
TIFTON         FAIR      89  65  44 S12       30.04S HX  91
FITZGERALD     MOCLDY    90  68  47 S9        30.06F HX  94
CORDELE        FAIR      91  64  41 S9        30.04F HX  92
AMERICUS       FAIR      86  61  42 S9G16     30.05S
HOMERVILLE     FAIR      91  68  46 SW9       30.05S HX  95
$$

!GMZ750-755-770-775-282000
...Coastal and Buoy Obs...

STATION/POSITION TIME  TEMP    WIND        PRES    VSBY  WAVE
                       AIR SEA DIR/SP/G                  HT/PER
                 (UTC) (F)     (DEG/KT/KT) (MB)    (MI)  (FT/S)
KEATON BEACH     1900   78     190/ 10/ 11 1017.9F
CEDAR KEY        1900   82     250/  4/  6 1018.1F
C TOWER          1900   74     140/ 15/ 17 1017.9F
APALACHICOLA BUO 1850   75 74  130/ 10/ 12 1016.8F         3/ 7
PANAMA CITY BUOY 1850   76 75  120/ 14/ 16 1015.6S         3/ 6
MOBILE BUOY      1900   77 76  140/ 16/ 17 1014.0
ORANGE BCH AL BU 1850   76 75  130/ 12/ 16 1015.0R         4/ 7
$$




USA.gov is the U.S. government's official web portal to all federal, state and local government web resources and services.